Lexington Weather

Lexington, Massachusetts, USA

25°F
1/21/2021 10:30am 
  • Lexington Conditions: Clear
  • Temperature: 25.3°F / -3.7°CWarmer 1.9°F than last hour.
  • Dew Point: 13.8°FIncreased 1.2°Fsince last hour.
  • Relative Humidity: 61%Decreased 2.0% since last hour.
  • Wind: Wind from WSW WSW 1 mph, 10-min avg: Calm, gust: 3 mph
  • Barometer: 29.77 in Steady
  • Visibility: 10 miles
  • Snow Today: 0.0 in
  •   

Regional Weather Roundup
for Boston / Norton, MA

        
000
ASUS41 KBOX 141904
RWRBOX

REGIONAL WEATHER ROUNDUP
NATIONAL WEATHER SERVICE BOSTON/NORTON MA
200 PM EST THU JAN 14 2021

NOTE:  "FAIR" INDICATES FEW OR NO CLOUDS BELOW 12,000 FEET WITH NO 
SIGNIFICANT WEATHER AND/OR OBSTRUCTIONS TO VISIBILITY.

MAZALL-142000-
EASTERN MASSACHUSETTS
  
CITY           SKY/WX    TMP DP  RH WIND       PRES   REMARKS
BOSTON         CLOUDY    37  35  92 CALM      29.82S FOG              
BEVERLY        LGT RAIN  39  33  79 NW5       29.81R                  
LAWRENCE       LGT RAIN  38  32  79 CALM      29.83R                  
BEDFORD        LGT RAIN  37  34  89 CALM      29.81R FOG              
BLUE HILL        N/A     37  35  92 CALM      29.78                   
NORWOOD        CLOUDY    41  36  82 N3        29.82R FOG              
MARSHFIELD     SUNNY     41  37  87 SE6       29.82R                  
PLYMOUTH       CLOUDY    43  33  68 NE6       29.81R                  
TAUNTON        CLOUDY    45  33  63 CALM      29.81R                  
NEW BEDFORD    PTSUNNY   46  37  71 SE7       29.80R                  
$$

MAZALL-142000-
CAPE COD AND THE ISLANDS
  
CITY           SKY/WX    TMP DP  RH WIND       PRES   REMARKS
FALMOUTH       CLOUDY    43  37  81 E7        29.81R                  
HYANNIS        CLOUDY    45  37  73 CALM      29.81R                  
CHATHAM        CLOUDY    46  37  71 CALM      29.83R                  
PROVINCETOWN   PTSUNNY   41  36  82 CALM      29.84R                  
NANTUCKET      CLOUDY    45  41  86 S6        29.83R                  
MARTHAS VNYRD  CLOUDY    47  40  76 S7        29.81R                  
$$
 
MAZALL-142000-
CENTRAL AND WESTERN MASSACHUSETTS
  
CITY           SKY/WX    TMP DP  RH WIND       PRES   REMARKS
WORCESTER      LGT RAIN  36  33  89 CALM      29.77S FOG              
FITCHBURG      LGT RAIN  37  36  96 CALM      29.81R FOG              
ORANGE         LGT SNOW  34  33  96 CALM      29.80S FOG              
SPRINGFIELD    LGT RAIN  35  33  95 CALM      29.79S FOG              
WESTFIELD      CLOUDY    35  33  92 CALM      29.80S FOG              
NORTH ADAMS    CLOUDY    37  31  78 E5        29.78S                  
PITTSFIELD     CLOUDY    34  32  92 CALM      29.75S FOG              
$$
 
RIZALL-142000-
RHODE ISLAND
  
CITY           SKY/WX    TMP DP  RH WIND       PRES   REMARKS
PROVIDENCE     CLOUDY    44  34  67 CALM      29.81R                  
NEWPORT        CLOUDY    44  35  70 E7        29.80R HAZE             
BLOCK ISLAND   CLOUDY    44  38  79 CALM      29.80F                  
SMITHFIELD     MOSUNNY   42  35  76 CALM      29.80R                  
WESTERLY       CLOUDY    44  35  70 S3        29.79S                  
$$
 
CTZALL-142000-
CONNECTICUT
  
CITY           SKY/WX    TMP DP  RH WIND       PRES   REMARKS
BRADLEY INTL   CLOUDY    38  34  85 CALM      29.80S                  
HARTFORD       CLOUDY    41  31  67 CALM      29.80S HAZE             
BRIDGEPORT     CLOUDY    43  34  70 S6        29.80S                  
DANBURY        CLOUDY    42  33  70 W3        29.79S                  
GROTON         CLOUDY    45  38  76 SW6       29.79S                  
NEW HAVEN      CLOUDY    48  32  53 S3        29.79S HAZE             
CHESTER        FAIR      48  34  57 SE6       29.78S                  
MERIDEN        CLOUDY    43  29  57 CALM      29.80S                  
WILLIMANTIC    CLOUDY    42  30  62 CALM      29.80R                  
OXFORD         CLOUDY    41  31  67 CALM      29.78S                  
$$

MEZ002-015-021-024-NHZ003-005-008-011-012-014-VTZ005-008-142000-
NORTHERN NEW ENGLAND
  
CITY           SKY/WX    TMP DP  RH WIND       PRES   REMARKS
PORTLAND ME    CLOUDY    37  25  61 NW5       29.83S                  
BANGOR ME      CLOUDY    37  23  56 CALM      29.83S                  
CONCORD NH     CLOUDY    36  25  64 NW3       29.80S                  
MANCHESTER NH  LGT SNOW  36  30  79 CALM      29.80S                  
NASHUA NH      LGT RAIN  38  35  89 CALM      29.82R FOG              
PORTSMOUTH NH  CLOUDY    39  24  54 N3        29.80S                  
JAFFREY NH     LGT SNOW  34  31  88 S3        29.77S FOG              
KEENE NH       CLOUDY    35  31  85 CALM      29.80S                  
BURLINGTON VT  CLOUDY    36  26  67 W3        29.79S                  
MT. WASHINGTON FOG       18  18 100 W28         N/A  VSB 1/16WCI  -1  
$$

NYZ052-076-142000-
EASTERN NEW YORK
  
CITY           SKY/WX    TMP DP  RH WIND       PRES   REMARKS
ALBANY         CLOUDY    34  31  88 CALM      29.80R                  
NEW YORK CITY  PTSUNNY   49  30  48 E5        29.78F                  
$$
 
ANZALL-142000-
MARINE OBSERVATIONS
  
STATION/POSITION TIME  TEMP    WIND        PRES    VSBY  WAVE
                       AIR SEA DIR/SP/G                  HT/PER
                 (UTC) (F)     (DEG/KT/KT) (MB)    (MI)  (FT/S)
BOSTON BUOY      1840   38 44  330/  4/  4 1009.9R
BUZZARDS BAY     1800          140/  5/  5 1010.2F
NANTUCKET SOUND  1840      41  160/  4/  4   N/A
MASS BAY-STELLWA 1804   39     230/  4/  6 1008.3F  1 7/8  1/11
ISLE OF SHOALS   1800   37     180/  2/  2 1009.3F
S OF BLOCK IS    1826      47                N/A           2/ 8
$$

......................KEY.........................
  SKY/WX - SKY CONDITION/PRESENT WEATHER
  TMP    - TEMPERATURE IN FAHRENHEIT
  DWPT   - DEWPOINT IN FAHRENHEIT
  RH     - RELATIVE HUMIDITY IN PERCENT
  WIND   - DIRECTION AND SPEED IN MPH
  PRES   - MEAN SEA LEVEL PRESSURE IN INCHES OF HG
  WCI    - WIND CHILL INDEX
  VSB    - VISIBILITY IN MILES
  HX     - HEAT INDEX
  TC     - TEMPERATURE IN CELSIUS
  VRB    - VARIABLE WIND DIRECTION
  N/A    - NOT AVAILABLE
  
      

Other recent Regional Weather Roundups

Thu Jan 21, 9:04am

Thu Jan 21, 7:04am

Thu Jan 21, 6:04am

Thu Jan 21, 5:04am

Thu Jan 21, 4:04am

Thu Jan 21, 3:04am

Thu Jan 21, 2:04am

Thu Jan 21, 1:04am

Thu Jan 21, 12:04am

Wed Jan 20, 11:04pm

Wed Jan 20, 10:05pm

Wed Jan 20, 9:04pm

Wed Jan 20, 8:04pm

Wed Jan 20, 7:04pm

Wed Jan 20, 6:05pm

Wed Jan 20, 5:05pm

Wed Jan 20, 1:04pm

Wed Jan 20, 12:04pm

Wed Jan 20, 11:04am

Wed Jan 20, 10:04am

Wed Jan 20, 9:05am

Wed Jan 20, 8:04am

Wed Jan 20, 7:04am

Wed Jan 20, 6:04am

Wed Jan 20, 5:04am

Wed Jan 20, 4:04am

Wed Jan 20, 3:05am

Wed Jan 20, 2:04am

Wed Jan 20, 1:04am

Wed Jan 20, 12:04am

Tue Jan 19, 11:04pm

Tue Jan 19, 10:04pm

Tue Jan 19, 9:04pm

Tue Jan 19, 8:04pm

Tue Jan 19, 7:04pm

Tue Jan 19, 6:05pm

Tue Jan 19, 5:04pm

Tue Jan 19, 4:05pm

Tue Jan 19, 3:04pm

Tue Jan 19, 2:04pm

Tue Jan 19, 1:04pm

Tue Jan 19, 12:05pm

Tue Jan 19, 11:04am

Tue Jan 19, 10:05am

Tue Jan 19, 9:04am

Tue Jan 19, 8:04am

Tue Jan 19, 7:04am

Tue Jan 19, 6:04am

Tue Jan 19, 5:04am

Tue Jan 19, 4:04am

Tue Jan 19, 3:04am

Tue Jan 19, 2:04am

Tue Jan 19, 1:04am

Tue Jan 19, 12:04am

Mon Jan 18, 11:04pm

Mon Jan 18, 10:04pm

Mon Jan 18, 9:04pm

Mon Jan 18, 8:05pm

Mon Jan 18, 7:04pm

Mon Jan 18, 6:05pm

Mon Jan 18, 5:04pm

Mon Jan 18, 4:04pm

Mon Jan 18, 3:04pm

Mon Jan 18, 2:04pm

Mon Jan 18, 1:04pm

Mon Jan 18, 12:04pm

Mon Jan 18, 11:04am

Mon Jan 18, 10:04am

Mon Jan 18, 9:04am

Mon Jan 18, 8:04am

Mon Jan 18, 7:04am

Mon Jan 18, 6:04am

Mon Jan 18, 5:04am

Mon Jan 18, 4:04am

Mon Jan 18, 3:04am

Mon Jan 18, 2:04am

Mon Jan 18, 1:04am

Mon Jan 18, 12:04am

Sun Jan 17, 11:04pm

Sun Jan 17, 10:04pm

Sun Jan 17, 9:04pm

Sun Jan 17, 8:04pm

Sun Jan 17, 7:04pm

Sun Jan 17, 6:04pm

Sun Jan 17, 5:04pm

Sun Jan 17, 4:05pm

Sun Jan 17, 3:04pm

Sun Jan 17, 2:04pm

Sun Jan 17, 1:04pm

Sun Jan 17, 12:04pm

Sun Jan 17, 11:04am

Sun Jan 17, 10:04am

Sun Jan 17, 9:04am

Sun Jan 17, 8:04am

Sun Jan 17, 7:04am

Sun Jan 17, 6:04am

Sun Jan 17, 5:04am

Sun Jan 17, 4:04am

Sun Jan 17, 3:04am

Sun Jan 17, 2:04am

Sun Jan 17, 1:04am

Sun Jan 17, 12:04am

Sat Jan 16, 11:05pm

Sat Jan 16, 10:04pm

Sat Jan 16, 9:04pm

Sat Jan 16, 8:05pm

Sat Jan 16, 7:04pm

Sat Jan 16, 6:04pm

Sat Jan 16, 5:05pm

Sat Jan 16, 4:05pm

Sat Jan 16, 3:05pm

Sat Jan 16, 2:04pm

Sat Jan 16, 1:04pm

Sat Jan 16, 12:04pm

Sat Jan 16, 11:04am

Sat Jan 16, 10:05am

Sat Jan 16, 9:04am

Sat Jan 16, 8:04am

Sat Jan 16, 7:04am

Sat Jan 16, 6:04am

Sat Jan 16, 5:04am

Sat Jan 16, 4:04am

Sat Jan 16, 3:05am

Sat Jan 16, 2:04am

Sat Jan 16, 1:04am

Sat Jan 16, 12:05am

Fri Jan 15, 11:05pm

Fri Jan 15, 10:04pm

Fri Jan 15, 9:04pm

Fri Jan 15, 8:04pm

Fri Jan 15, 7:05pm

Fri Jan 15, 6:05pm

Fri Jan 15, 5:05pm

Fri Jan 15, 4:05pm

Fri Jan 15, 3:04pm

Fri Jan 15, 2:05pm

Fri Jan 15, 1:04pm

Fri Jan 15, 12:05pm

Fri Jan 15, 11:04am

Fri Jan 15, 10:04am

Fri Jan 15, 9:05am

Fri Jan 15, 8:04am

Fri Jan 15, 7:04am

Fri Jan 15, 6:04am

Fri Jan 15, 5:05am

Fri Jan 15, 4:04am

Fri Jan 15, 3:04am

Fri Jan 15, 2:04am

Fri Jan 15, 1:04am

Fri Jan 15, 12:05am

Thu Jan 14, 11:04pm

Thu Jan 14, 10:04pm

Thu Jan 14, 9:04pm

Thu Jan 14, 8:05pm

Thu Jan 14, 7:04pm

Thu Jan 14, 6:04pm

Thu Jan 14, 5:04pm

Thu Jan 14, 4:05pm

Thu Jan 14, 3:04pm

Thu Jan 14, 1:04pm

Thu Jan 14, 12:05pm

Thu Jan 14, 11:05am

Thu Jan 14, 10:04am

Thu Jan 14, 9:04am

Thu Jan 14, 8:04am

Thu Jan 14, 7:04am

Thu Jan 14, 6:04am

Thu Jan 14, 5:04am

Thu Jan 14, 4:04am

Thu Jan 14, 3:04am

Thu Jan 14, 2:04am

Thu Jan 14, 1:04am

Thu Jan 14, 12:04am

Wed Jan 13, 11:04pm

Wed Jan 13, 10:04pm

Wed Jan 13, 9:04pm

Wed Jan 13, 8:05pm

Wed Jan 13, 7:04pm

Wed Jan 13, 6:04pm

Wed Jan 13, 5:04pm

Wed Jan 13, 4:04pm

Wed Jan 13, 3:05pm

Wed Jan 13, 2:04pm

Wed Jan 13, 1:04pm

Wed Jan 13, 12:04pm

Wed Jan 13, 11:04am

Wed Jan 13, 10:04am

Wed Jan 13, 9:05am

Wed Jan 13, 8:04am

Wed Jan 13, 7:04am

Wed Jan 13, 6:04am

Wed Jan 13, 5:04am

Wed Jan 13, 4:04am

Wed Jan 13, 3:04am

Wed Jan 13, 2:04am

Wed Jan 13, 1:04am

Wed Jan 13, 12:05am

Tue Jan 12, 11:04pm

Tue Jan 12, 10:04pm

Tue Jan 12, 9:04pm

Tue Jan 12, 8:05pm

Tue Jan 12, 7:04pm

Meta data:

ID: dc13ec8a-68b7-4ea3-b0c5-0316d8f65058
Link: https://api.weather.gov/products/dc13ec8a-68b7-4ea3-b0c5-0316d8f65058